Time,TemperatureF,DewpointF,PressureIn,WindDirection,WindDirectionDegrees,WindSpeedMPH,WindSpeedGustMPH,Humidity,HourlyPrecipIn,Conditions,Clouds,dailyrainin,SoftwareType,DateUTC
2013-02-20 00:14:00,7.3,3.0,29.78,NNE,22,4.0,10.0,81,0.00,,,0.00,weatherlink.com 1.10,2013-02-20 05:14:00,
2013-02-20 00:29:00,7.2,2.0,29.79,NNE,32,4.0,14.0,78,0.00,,,0.00,weatherlink.com 1.10,2013-02-20 05:29:00,
2013-02-20 00:44:00,7.0,2.0,29.80,NNE,32,0.0,16.0,78,0.00,,,0.00,weatherlink.com 1.10,2013-02-20 05:44:00,
2013-02-20 01:00:00,7.1,2.0,29.80,WSW,253,2.0,12.0,78,0.00,,,0.00,weatherlink.com 1.10,2013-02-20 06:00:00,
2013-02-20 01:15:00,7.2,2.0,29.81,NNW,334,5.0,15.0,78,0.00,,,0.00,weatherlink.com 1.10,2013-02-20 06:15:00,
2013-02-20 01:30:00,7.2,2.0,29.82,NW,318,4.0,14.0,80,0.00,,,0.00,weatherlink.com 1.10,2013-02-20 06:30:00,
2013-02-20 01:45:00,7.1,2.0,29.82,West,281,7.0,15.0,80,0.00,,,0.00,weatherlink.com 1.10,2013-02-20 06:45:00,
2013-02-20 02:00:00,7.0,3.0,29.83,NW,311,3.0,13.0,82,0.00,,,0.00,weatherlink.com 1.10,2013-02-20 07:00:00,
2013-02-20 02:15:00,7.0,3.0,29.84,NW,323,3.0,10.0,82,0.00,,,0.00,weatherlink.com 1.10,2013-02-20 07:15:00,
2013-02-20 02:30:00,7.0,2.0,29.85,West,281,2.0,15.0,80,0.00,,,0.00,weatherlink.com 1.10,2013-02-20 07:30:00,
2013-02-20 02:45:00,6.9,2.0,29.86,WNW,284,2.0,12.0,79,0.00,,,0.00,weatherlink.com 1.10,2013-02-20 07:45:00,
2013-02-20 03:00:00,6.8,2.0,29.86,NW,318,2.0,14.0,79,0.00,,,0.00,weatherlink.com 1.10,2013-02-20 08:00:00,
2013-02-20 03:15:00,6.7,2.0,29.87,NNW,332,7.0,12.0,79,0.00,,,0.00,weatherlink.com 1.10,2013-02-20 08:15:00,
2013-02-20 03:30:00,6.5,2.0,29.87,WNW,290,4.0,14.0,80,0.00,,,0.00,weatherlink.com 1.10,2013-02-20 08:30:00,
2013-02-20 03:45:00,6.5,2.0,29.88,NW,314,0.0,11.0,82,0.00,,,0.00,weatherlink.com 1.10,2013-02-20 08:45:00,
2013-02-20 04:00:00,6.4,2.0,29.89,WNW,292,3.0,15.0,83,0.00,,,0.00,weatherlink.com 1.10,2013-02-20 09:00:00,
2013-02-20 04:16:00,6.4,3.0,29.90,WSW,239,6.0,13.0,84,0.00,,,0.00,weatherlink.com 1.10,2013-02-20 09:16:00,
2013-02-20 04:31:00,6.5,3.0,29.91,WNW,302,6.0,11.0,85,0.00,,,0.00,weatherlink.com 1.10,2013-02-20 09:31:00,
2013-02-20 04:46:00,6.7,3.0,29.92,NW,307,6.0,13.0,85,0.00,,,0.00,weatherlink.com 1.10,2013-02-20 09:46:00,
2013-02-20 05:01:00,6.6,3.0,29.93,West,271,3.0,11.0,83,0.00,,,0.00,weatherlink.com 1.10,2013-02-20 10:01:00,
2013-02-20 05:16:00,6.5,2.0,29.94,WNW,295,6.0,15.0,83,0.00,,,0.00,weatherlink.com 1.10,2013-02-20 10:16:00,
2013-02-20 05:31:00,6.1,2.0,29.95,WNW,294,10.0,19.0,81,0.00,,,0.00,weatherlink.com 1.10,2013-02-20 10:31:00,
2013-02-20 05:46:00,5.8,1.0,29.96,WNW,294,3.0,13.0,81,0.00,,,0.00,weatherlink.com 1.10,2013-02-20 10:46:00,
2013-02-20 06:01:00,5.6,1.0,29.97,NW,314,6.0,14.0,80,0.00,,,0.00,weatherlink.com 1.10,2013-02-20 11:01:00,
2013-02-20 06:16:00,5.3,0.0,29.98,WNW,302,6.0,11.0,80,0.00,,,0.00,weatherlink.com 1.10,2013-02-20 11:16:00,
2013-02-20 06:31:00,5.1,0.0,29.99,NNW,339,1.0,11.0,80,0.00,,,0.00,weatherlink.com 1.10,2013-02-20 11:31:00,
2013-02-20 06:46:00,4.9,0.0,29.99,West,274,2.0,13.0,80,0.00,,,0.00,weatherlink.com 1.10,2013-02-20 11:46:00,
2013-02-20 07:01:00,4.6,-1.0,30.00,WNW,290,3.0,13.0,78,0.00,,,0.00,weatherlink.com 1.10,2013-02-20 12:01:00,
2013-02-20 07:16:00,4.4,-1.0,30.02,NNW,335,3.0,15.0,78,0.00,,,0.00,weatherlink.com 1.10,2013-02-20 12:16:00,
2013-02-20 07:32:00,4.0,-2.0,30.03,WNW,290,9.0,18.0,77,0.00,,,0.00,weatherlink.com 1.10,2013-02-20 12:32:00,
2013-02-20 07:47:00,3.5,-3.0,30.04,WNW,296,5.0,16.0,75,0.00,,,0.00,weatherlink.com 1.10,2013-02-20 12:47:00,
2013-02-20 08:02:00,3.2,-3.0,30.05,WNW,291,6.0,19.0,75,0.00,,,0.00,weatherlink.com 1.10,2013-02-20 13:02:00,
2013-02-20 08:17:00,3.0,-3.0,30.05,WNW,283,11.0,15.0,75,0.00,,,0.00,weatherlink.com 1.10,2013-02-20 13:17:00,
2013-02-20 08:32:00,3.0,-3.0,30.06,WNW,283,8.0,10.0,76,0.00,,,0.00,weatherlink.com 1.10,2013-02-20 13:32:00,
2013-02-20 08:47:00,2.9,-3.0,30.07,NW,314,5.0,11.0,76,0.00,,,0.00,weatherlink.com 1.10,2013-02-20 13:47:00,
2013-02-20 09:02:00,2.6,-4.0,30.07,NNW,338,7.0,14.0,74,0.00,,,0.00,weatherlink.com 1.10,2013-02-20 14:02:00,
2013-02-20 09:17:00,2.8,-3.0,30.08,NNW,327,4.0,13.0,75,0.00,,,0.00,weatherlink.com 1.10,2013-02-20 14:17:00,
2013-02-20 09:32:00,2.4,-4.0,30.10,North,8,3.0,14.0,74,0.00,,,0.00,weatherlink.com 1.10,2013-02-20 14:32:00,
2013-02-20 09:47:00,3.7,-3.0,30.10,NW,305,10.0,13.0,72,0.00,,,0.00,weatherlink.com 1.10,2013-02-20 14:47:00,
2013-02-20 10:02:00,5.0,-3.0,30.10,NNW,331,4.0,10.0,71,0.00,,,0.00,weatherlink.com 1.10,2013-02-20 15:02:00,
2013-02-20 10:17:00,4.8,-3.0,30.10,West,263,4.0,10.0,70,0.00,,,0.00,weatherlink.com 1.10,2013-02-20 15:17:00,
2013-02-20 10:32:00,5.0,-3.0,30.11,WNW,302,7.0,21.0,69,0.00,,,0.00,weatherlink.com 1.10,2013-02-20 15:32:00,
2013-02-20 10:48:00,4.9,-3.0,30.11,WNW,298,8.0,15.0,69,0.00,,,0.00,weatherlink.com 1.10,2013-02-20 15:48:00,
2013-02-20 11:03:00,4.8,-3.0,30.11,NNW,335,2.0,26.0,70,0.00,,,0.00,weatherlink.com 1.10,2013-02-20 16:03:00,
2013-02-20 11:18:00,5.5,-2.0,30.12,NW,305,6.0,16.0,70,0.00,,,0.00,weatherlink.com 1.10,2013-02-20 16:18:00,
2013-02-20 11:33:00,6.6,-1.0,30.13,North,356,5.0,13.0,70,0.00,,,0.00,weatherlink.com 1.10,2013-02-20 16:33:00,
2013-02-20 11:48:00,6.5,-1.0,30.13,West,274,8.0,17.0,71,0.00,,,0.00,weatherlink.com 1.10,2013-02-20 16:48:00,
2013-02-20 12:03:00,7.0,-1.0,30.12,NW,322,6.0,15.0,71,0.00,,,0.00,weatherlink.com 1.10,2013-02-20 17:03:00,
2013-02-20 12:18:00,8.0,1.0,30.12,NW,316,6.0,17.0,73,0.00,,,0.00,weatherlink.com 1.10,2013-02-20 17:18:00,
2013-02-20 12:33:00,8.7,2.0,30.12,WNW,291,11.0,12.0,73,0.00,,,0.00,weatherlink.com 1.10,2013-02-20 17:33:00,
2013-02-20 12:48:00,9.1,2.0,30.12,NNW,339,3.0,18.0,73,0.00,,,0.00,weatherlink.com 1.10,2013-02-20 17:48:00,
2013-02-20 13:03:00,9.6,2.0,30.12,West,281,4.0,18.0,72,0.00,,,0.00,weatherlink.com 1.10,2013-02-20 18:03:00,
2013-02-20 13:18:00,10.3,3.0,30.13,NW,322,4.0,11.0,73,0.00,,,0.00,weatherlink.com 1.10,2013-02-20 18:18:00,
2013-02-20 13:33:00,10.0,3.0,30.13,WNW,297,3.0,17.0,73,0.00,,,0.00,weatherlink.com 1.10,2013-02-20 18:33:00,
2013-02-20 13:48:00,9.5,3.0,30.13,West,266,9.0,14.0,75,0.00,,,0.00,weatherlink.com 1.10,2013-02-20 18:48:00,
2013-02-20 14:04:00,9.6,4.0,30.13,North,349,9.0,14.0,76,0.00,,,0.00,weatherlink.com 1.10,2013-02-20 19:04:00,
2013-02-20 14:19:00,10.7,4.0,30.13,WNW,299,10.0,16.0,75,0.00,,,0.00,weatherlink.com 1.10,2013-02-20 19:19:00,
2013-02-20 14:34:00,10.8,5.0,30.13,WNW,287,8.0,16.0,76,0.00,,,0.00,weatherlink.com 1.10,2013-02-20 19:34:00,
2013-02-20 14:49:00,10.0,4.0,30.14,WNW,299,3.0,13.0,77,0.00,,,0.00,weatherlink.com 1.10,2013-02-20 19:49:00,
2013-02-20 15:04:00,9.5,4.0,30.15,SW,224,2.0,13.0,77,0.00,,,0.00,weatherlink.com 1.10,2013-02-20 20:04:00,
2013-02-20 15:19:00,9.6,4.0,30.16,North,349,7.0,11.0,78,0.00,,,0.00,weatherlink.com 1.10,2013-02-20 20:19:00,
2013-02-20 15:34:00,9.6,4.0,30.16,NW,307,4.0,13.0,78,0.00,,,0.00,weatherlink.com 1.10,2013-02-20 20:34:00,
2013-02-20 15:49:00,9.3,4.0,30.17,WNW,302,7.0,16.0,80,0.00,,,0.00,weatherlink.com 1.10,2013-02-20 20:49:00,
2013-02-20 16:04:00,9.5,5.0,30.17,West,281,8.0,16.0,81,0.00,,,0.00,weatherlink.com 1.10,2013-02-20 21:04:00,
2013-02-20 16:19:00,9.6,5.0,30.18,WNW,302,7.0,13.0,81,0.00,,,0.00,weatherlink.com 1.10,2013-02-20 21:19:00,
2013-02-20 16:34:00,9.5,5.0,30.18,NW,311,4.0,14.0,81,0.00,,,0.00,weatherlink.com 1.10,2013-02-20 21:34:00,
2013-02-20 16:49:00,9.7,5.0,30.18,WNW,284,7.0,13.0,82,0.00,,,0.00,weatherlink.com 1.10,2013-02-20 21:49:00,
2013-02-20 17:04:00,9.7,5.0,30.18,WNW,290,6.0,16.0,82,0.00,,,0.00,weatherlink.com 1.10,2013-02-20 22:04:00,
2013-02-20 17:20:00,9.5,5.0,30.20,WNW,297,6.0,12.0,82,0.00,,,0.00,weatherlink.com 1.10,2013-02-20 22:20:00,
2013-02-20 17:35:00,9.2,5.0,30.20,WNW,288,4.0,13.0,83,0.00,,,0.00,weatherlink.com 1.10,2013-02-20 22:35:00,
2013-02-20 17:50:00,9.1,5.0,30.21,NW,308,5.0,11.0,82,0.00,,,0.00,weatherlink.com 1.10,2013-02-20 22:50:00,
2013-02-20 18:05:00,8.9,5.0,30.21,NW,305,3.0,10.0,82,0.00,,,0.00,weatherlink.com 1.10,2013-02-20 23:05:00,
2013-02-20 18:20:00,8.9,5.0,30.23,West,281,1.0,10.0,83,0.00,,,0.00,weatherlink.com 1.10,2013-02-20 23:20:00,
2013-02-20 18:35:00,8.8,5.0,30.23,West,269,1.0,10.0,83,0.00,,,0.00,weatherlink.com 1.10,2013-02-20 23:35:00,
2013-02-20 18:50:00,8.8,5.0,30.25,West,280,3.0,10.0,83,0.00,,,0.00,weatherlink.com 1.10,2013-02-20 23:50:00,
2013-02-20 19:05:00,8.8,4.0,30.25,NW,309,2.0,8.0,82,0.00,,,0.00,weatherlink.com 1.10,2013-02-21 00:05:00,
2013-02-20 19:20:00,8.6,4.0,30.25,WNW,287,5.0,9.0,82,0.00,,,0.00,weatherlink.com 1.10,2013-02-21 00:20:00,
2013-02-20 19:35:00,8.5,4.0,30.26,WNW,291,6.0,9.0,82,0.00,,,0.00,weatherlink.com 1.10,2013-02-21 00:35:00,
2013-02-20 19:50:00,8.5,4.0,30.26,SW,233,2.0,11.0,81,0.00,,,0.00,weatherlink.com 1.10,2013-02-21 00:50:00,
2013-02-20 20:05:00,8.5,3.0,30.27,West,264,4.0,11.0,79,0.00,,,0.00,weatherlink.com 1.10,2013-02-21 01:05:00,
2013-02-20 20:20:00,8.3,3.0,30.27,NNE,16,0.0,10.0,79,0.00,,,0.00,weatherlink.com 1.10,2013-02-21 01:20:00,
2013-02-20 20:36:00,7.9,3.0,30.27,North,8,0.0,11.0,79,0.00,,,0.00,weatherlink.com 1.10,2013-02-21 01:36:00,
2013-02-20 20:51:00,7.4,2.0,30.28,NW,315,7.0,11.0,79,0.00,,,0.00,weatherlink.com 1.10,2013-02-21 01:51:00,
2013-02-20 21:06:00,7.1,2.0,30.29,WNW,298,4.0,12.0,78,0.00,,,0.00,weatherlink.com 1.10,2013-02-21 02:06:00,
2013-02-20 21:21:00,6.7,2.0,30.29,NNE,19,1.0,10.0,79,0.00,,,0.00,weatherlink.com 1.10,2013-02-21 02:21:00,
2013-02-20 21:36:00,6.3,1.0,30.30,NW,325,4.0,13.0,78,0.00,,,0.00,weatherlink.com 1.10,2013-02-21 02:36:00,
2013-02-20 21:51:00,5.9,0.0,30.30,North,1,6.0,15.0,76,0.00,,,0.00,weatherlink.com 1.10,2013-02-21 02:51:00,
2013-02-20 22:06:00,5.6,0.0,30.31,NNW,340,5.0,19.0,76,0.00,,,0.00,weatherlink.com 1.10,2013-02-21 03:06:00,
2013-02-20 22:21:00,5.2,-1.0,30.31,NNE,23,7.0,15.0,76,0.00,,,0.00,weatherlink.com 1.10,2013-02-21 03:21:00,
2013-02-20 22:36:00,5.0,-1.0,30.32,NW,311,4.0,14.0,76,0.00,,,0.00,weatherlink.com 1.10,2013-02-21 03:36:00,
2013-02-20 22:51:00,4.7,-1.0,30.32,NE,44,4.0,16.0,77,0.00,,,0.00,weatherlink.com 1.10,2013-02-21 03:51:00,
2013-02-20 23:06:00,4.5,-1.0,30.32,NNE,19,3.0,15.0,78,0.00,,,0.00,weatherlink.com 1.10,2013-02-21 04:06:00,
2013-02-20 23:21:00,4.4,-1.0,30.33,NNW,334,4.0,10.0,78,0.00,,,0.00,weatherlink.com 1.10,2013-02-21 04:21:00,
2013-02-20 23:36:00,4.3,-1.0,30.34,West,281,6.0,7.0,79,0.00,,,0.00,weatherlink.com 1.10,2013-02-21 04:36:00,
2013-02-20 23:52:00,4.2,-1.0,30.33,WNW,297,2.0,8.0,80,0.00,,,0.00,weatherlink.com 1.10,2013-02-21 04:52:00,